Theta_e
306 309 314 310 311 311 313 303 294 299 304 297 299 296 297 293 291 293 292 293 291 290 288 286 285 284 287 293 293 288 290 290 284 283 290 290 288 284 285 282 277 279 279 281
305 312 311 310 311 312 305 296 290 298 299 289 295 296 292 292 291 292 292 290 292 292 289 284 287 287 291 293 292 290 291 287 281 282 286 288 286 285 282 280 282 280 278 282
304 312 310 311 311 308 305 296 286 292 296 301 297 294 291 289 293 292 293 291 293 290 288 289 286 287 290 293 292 292 292 286 283 282 283 287 283 285 284 283 282 280 281 283
305 311 311 311 311 307 303 302 290 293 287 294 298 297 293 290 288 293 294 290 291 290 286 286 286 288 289 291 293 292 291 284 285 285 286 285 285 285 284 280 284 280 281 279
308 310 310 311 310 307 300 295 296 295 294 298 297 294 293 292 290 292 291 292 292 292 287 288 285 289 289 288 292 290 292 284 286 283 286 286 284 286 287 285 283 281 282 282
310 310 310 311 307 309 302 302 306 304 297 297 296 295 295 295 294 291 296 296 292 290 292 293 294 295 294 293 291 290 288 287 283 280 285 283 280 284 286 286 287 286 282 289
310 310 310 311 307 306 302 305 307 300 293 296 297 296 295 294 297 292 293 295 293 293 298 297 296 294 293 293 293 293 287 286 285 282 283 275 286 290 289 287 287 289 288 289
310 309 310 309 306 302 303 307 310 304 295 297 295 296 295 295 295 293 293 294 297 299 295 289 285 286 286 288 290 290 291 287 284 281 281 284 284 287 286 285 285 290 289 290
309 309 308 306 305 304 303 306 310 307 297 297 298 296 296 293 293 291 292 296 300 298 292 288 281 280 283 282 284 290 290 290 286 282 278 277 286 289 292 291 283 290 291 290
308 307 306 304 305 305 309 305 307 306 298 300 300 296 297 299 296 292 292 293 293 297 290 286 283 282 286 281 280 281 284 285 282 283 281 285 290 291 293 280 286 292 293 292
306 305 304 304 305 305 306 300 305 306 298 299 302 301 297 297 297 291 294 292 293 292 289 288 287 287 286 285 286 284 283 283 283 284 281 279 293 291 285 292 294 294 294 294
306 305 304 304 304 304 306 298 303 306 302 299 303 304 304 303 303 298 297 294 294 297 293 291 291 287 288 287 283 291 284 289 288 288 289 293 294 294 296 296 295 295 295 295
306 305 305 305 305 304 305 302 302 304 299 298 299 297 302 305 306 306 295 296 298 296 300 296 294 288 291 285 286 288 290 293 288 287 291 292 294 296 297 297 296 296 296 296
305 305 305 305 304 304 305 303 302 305 301 295 294 302 299 302 304 303 304 301 300 300 300 296 293 289 292 290 290 289 292 291 289 289 292 291 293 296 297 296 297 296 296 297
305 305 304 304 303 303 302 302 302 305 302 294 293 300 300 302 303 302 303 301 299 296 294 293 291 293 292 293 291 289 292 291 288 289 294 294 293 297 297 296 296 297 297 295
305 304 303 303 304 306 307 298 307 306 306 297 291 297 297 300 302 300 300 300 298 298 294 293 294 292 292 287 286 291 294 296 296 293 295 296 297 298 298 297 298 298 298 297
303 303 304 304 304 304 301 300 304 303 308 297 291 291 296 298 299 299 298 299 298 298 295 293 293 292 292 289 284 290 293 294 295 296 296 294 296 294 297 298 298 298 298 297
303 303 303 303 301 301 299 302 302 305 301 299 291 289 292 297 295 294 298 296 297 296 294 293 292 292 291 286 290 292 293 294 294 295 296 296 297 297 297 298 297 295 295 295
303 303 303 302 298 298 296 299 302 307 303 294 293 288 287 296 294 296 295 298 291 294 291 291 292 289 285 290 291 292 293 292 292 295 295 296 295 296 296 296 295 295 294 294
304 302 295 288 295 300 300 302 301 299 297 297 292 296 289 294 293 292 292 293 290 286 289 292 288 287 292 293 295 295 295 295 296 293 292 294 294 295 295 295 296 296 295 294
294 289 288 295 298 297 295 292 293 293 289 293 293 294 289 295 290 289 293 289 288 283 287 286 285 285 291 295 295 296 296 296 297 298 298 298 297 296 295 294 295 296 295 294
296 295 297 295 291 288 288 287 289 289 287 290 291 291 293 293 297 292 289 286 286 280 289 284 282 290 294 294 294 295 296 296 296 298 297 298 297 297 296 296 295 295 295 292
299 295 290 289 286 282 284 279 283 285 288 290 291 290 292 293 295 289 289 285 282 289 284 283 287 294 293 294 295 295 295 296 297 297 297 297 296 297 297 296 296 296 294 293
293 288 282 285 282 284 286 288 288 290 291 292 293 291 291 292 289 288 283 286 286 281 280 282 291 294 295 295 295 295 294 296 297 296 296 296 297 296 295 291 292 290 291 288
288 289 283 282 286 287 288 290 289 291 294 295 291 291 292 289 284 287 284 280 279 282 283 291 294 293 293 294 294 295 295 293 296 296 296 292 291 291 290 292 293 294 287 287
289 286 283 285 286 285 288 289 289 294 295 296 294 289 286 284 286 282 281 280 280 286 290 294 294 293 294 294 295 296 296 296 297 297 297 294 290 292 294 293 294 288 288 287
286 285 288 288 289 287 289 291 291 296 293 290 290 284 283 287 283 282 286 283 289 293 293 294 294 294 295 295 295 294 296 296 297 297 296 296 296 297 295 293 294 293 292 287
Wind_Speed
23 26 39 42 41 37 19 5 7 4 3 9 4 7 9 6 14 4 5 6 8 10 8 6 5 7 3 8 9 7 3 2 4 4 2 2 1 3 1 3 4 1 3 2
24 35 42 44 43 36 8 9 6 1 3 8 10 8 9 5 11 8 6 5 4 6 9 6 9 8 6 8 6 6 7 3 5 5 5 6 5 3 3 2 1 5 3 1
27 41 45 46 43 23 10 8 8 2 2 6 19 18 12 9 2 6 6 9 8 10 8 5 11 10 7 8 4 5 5 2 3 2 4 7 4 8 8 4 3 5 7 7
28 43 45 46 40 25 11 3 6 7 11 10 18 17 15 18 9 4 8 5 6 10 6 10 8 12 13 8 10 6 4 4 5 1 1 4 7 7 10 8 4 6 2 5
30 43 44 46 35 19 7 8 11 6 15 21 23 11 16 22 9 12 12 9 14 10 9 8 16 17 11 8 11 7 6 5 4 4 4 6 8 10 11 12 7 9 11 11
43 45 43 42 30 18 5 4 13 10 16 20 17 15 20 20 15 2 9 14 15 8 9 6 13 9 9 8 12 10 7 5 5 3 4 6 9 13 13 9 10 7 7 4
43 42 42 42 26 1 6 9 12 8 13 15 18 21 18 22 14 11 9 16 11 7 17 20 15 12 8 9 8 7 6 7 3 2 3 5 4 8 7 9 9 13 10 9
43 41 39 34 21 4 12 6 9 6 12 17 15 21 16 17 12 14 17 8 9 20 20 14 10 5 4 6 7 8 6 6 3 4 6 5 10 8 7 10 6 10 9 5
39 39 36 28 20 12 7 5 6 6 12 15 21 21 24 17 11 11 5 7 18 16 6 5 7 7 7 8 7 7 6 6 4 3 5 5 5 11 6 4 7 11 7 5
38 36 31 27 16 9 8 6 2 6 7 16 24 17 19 13 12 9 10 13 9 7 4 4 5 5 7 9 9 10 10 7 10 7 5 7 5 12 9 5 3 10 8 6
38 35 33 24 16 8 7 6 6 5 6 11 15 8 16 16 13 13 18 10 7 7 7 5 4 3 7 5 6 9 13 9 6 7 7 9 13 14 8 2 7 7 7 5
37 33 34 23 17 9 4 7 4 6 7 10 6 9 6 2 7 14 17 2 16 6 5 4 4 4 5 7 5 10 9 8 5 9 5 1 20 4 15 6 7 7 6 5
35 34 28 21 15 9 11 7 4 5 9 11 9 10 9 7 11 13 9 3 8 5 2 5 2 4 6 7 6 9 10 9 5 3 6 12 16 16 8 10 9 5 5 4
34 32 26 19 16 14 10 5 2 3 7 6 7 3 6 4 7 2 3 13 7 8 3 2 3 3 5 4 2 8 3 12 11 10 11 2 13 18 16 12 9 7 7 7
34 30 24 24 21 20 13 6 2 3 4 7 8 9 7 5 5 10 12 15 11 7 4 3 3 3 4 2 2 9 10 11 9 7 7 9 3 16 19 16 13 11 10 9
33 28 27 26 21 10 8 7 1 2 6 8 6 3 4 7 12 13 11 8 5 3 3 3 3 2 4 4 5 7 14 15 16 7 3 8 3 4 14 13 12 11 13 11
28 27 26 21 17 9 5 5 7 4 5 7 7 6 4 5 5 3 4 4 4 0 2 2 2 4 4 3 7 5 8 14 14 9 7 8 11 9 11 10 9 10 11 9
29 26 26 24 26 13 4 6 4 1 7 5 6 5 7 3 5 5 1 3 3 2 2 3 4 4 4 8 12 15 15 11 12 14 14 8 7 11 6 9 11 13 12 11
34 28 20 9 7 3 2 6 1 7 5 6 4 10 7 6 4 3 3 1 3 2 4 4 4 6 10 13 14 11 10 10 8 14 13 12 10 10 10 11 13 13 12 12
25 12 8 4 3 7 6 3 4 4 3 3 5 5 7 9 6 3 5 2 3 4 4 4 6 10 15 15 14 10 8 14 9 11 14 14 13 11 11 13 12 12 12 12
6 5 4 1 6 6 5 3 2 3 3 3 4 5 11 1 9 6 0 3 3 4 4 5 5 6 9 19 20 18 11 11 14 12 9 14 12 11 10 10 11 10 11 12
10 13 6 2 4 3 5 4 4 4 6 5 8 8 7 5 3 4 4 3 3 4 4 4 6 7 10 5 4 8 17 16 15 12 9 10 11 10 11 10 11 12 11 9
7 8 5 4 3 4 9 10 5 6 8 8 11 11 5 5 2 4 4 5 5 3 4 6 7 2 3 4 6 5 10 16 15 13 11 11 9 8 10 10 9 10 10 9
5 5 6 6 6 7 4 8 8 6 9 15 12 7 5 3 4 4 5 3 4 5 6 8 6 4 6 5 5 6 12 15 15 15 13 11 10 8 6 4 8 8 8 7
5 5 6 5 4 3 5 7 8 6 14 14 10 6 4 3 5 3 5 6 6 7 7 5 2 3 5 7 7 8 13 10 12 13 11 7 7 9 6 7 10 10 6 7
2 3 5 4 5 4 4 7 10 11 13 10 4 5 5 4 5 6 8 7 8 5 5 3 4 3 5 6 7 9 11 12 12 11 10 10 9 10 11 10 9 4 7 7
2 3 3 3 4 6 6 9 10 12 12 6 5 7 5 6 5 6 7 7 4 3 3 3 3 4 7 7 9 9 11 12 11 10 10 11 11 9 10 10 9 9 8 6
Wind_Direction
234 238 162 151 153 146 142 111 108 145 208 159 135 159 147 116 150 159 115 103 103 153 148 148 138 153 107 159 159 153 82 113 146 113 63 323 78 144 269 270 156 94 303 285
243 188 159 156 155 153 127 102 103 15 295 151 166 137 122 139 159 153 144 118 122 150 153 119 138 129 128 155 162 157 166 155 142 168 185 198 237 181 122 115 20 193 270 56
260 165 158 156 155 146 100 112 120 113 257 187 161 153 154 133 115 116 104 114 120 136 137 134 152 136 153 168 154 108 161 182 264 285 80 130 171 193 185 239 217 152 236 295
256 160 161 158 160 150 100 141 134 157 173 181 163 163 164 146 146 138 155 139 167 152 135 136 144 138 139 159 145 156 242 182 190 183 206 212 221 206 197 210 219 232 86 235
212 160 161 163 163 142 91 123 143 186 146 154 160 139 182 166 139 157 173 167 164 161 155 175 171 160 166 159 177 183 198 165 194 225 211 229 240 228 219 221 226 253 265 274
163 159 160 162 162 165 121 111 129 129 141 164 165 176 166 171 141 118 183 158 152 169 141 122 152 153 133 153 169 177 184 176 186 236 189 300 267 228 216 201 200 221 242 218
160 159 162 165 163 355 120 152 133 112 162 168 173 164 160 162 169 134 147 157 151 109 116 109 106 105 106 149 148 171 183 192 204 259 200 240 99 149 207 230 232 213 247 270
156 158 159 158 141 220 115 151 152 118 149 166 154 162 148 129 122 111 143 133 124 151 134 116 118 132 159 169 179 193 216 194 212 234 229 319 202 206 200 207 221 211 227 241
155 154 151 143 136 131 93 116 106 108 122 186 161 147 154 148 127 124 111 133 148 155 129 148 171 176 171 169 172 211 192 238 231 209 262 249 96 146 164 185 245 185 198 212
147 141 139 128 113 124 124 91 48 110 105 159 160 163 159 148 141 121 130 152 160 210 165 166 169 160 174 170 189 181 189 202 219 219 269 280 183 152 159 224 100 176 194 217
137 132 125 124 122 93 82 101 28 70 88 147 181 152 152 149 155 149 153 141 203 177 189 192 163 168 183 184 192 175 182 185 191 203 228 256 156 149 208 130 151 172 195 220
135 127 127 132 127 99 97 70 39 52 85 123 98 101 139 191 151 128 174 59 159 161 153 198 154 156 162 189 201 193 204 211 184 209 219 141 181 178 203 185 181 192 210 195
133 129 130 135 122 109 91 92 159 134 111 92 114 119 44 83 147 141 155 151 144 165 80 155 142 172 174 182 225 196 225 204 237 179 230 215 205 216 208 206 222 197 216 220
131 131 128 119 101 88 91 112 57 80 106 104 93 98 55 16 136 123 179 122 104 120 175 141 165 180 225 191 16 226 185 167 216 239 251 228 221 219 217 215 228 234 235 213
134 129 122 117 110 101 87 92 23 360 101 115 113 110 40 57 122 106 130 137 136 157 161 182 173 111 189 172 249 233 188 199 196 213 210 201 198 214 214 226 236 229 206 183
130 127 125 128 129 135 90 59 337 322 122 113 112 81 61 84 104 102 111 121 116 143 181 167 144 75 250 231 244 249 214 229 221 227 194 209 150 174 192 211 220 209 191 183
123 129 133 129 87 54 62 135 136 160 106 100 118 112 108 107 111 77 93 79 93 152 126 197 169 175 223 249 241 223 218 225 224 226 179 196 194 196 200 207 193 166 174 169
123 120 112 108 96 127 56 12 18 87 93 82 107 102 149 199 134 116 353 131 156 85 121 169 219 152 220 250 243 241 242 226 220 206 210 232 212 207 180 174 163 169 170 165
119 113 101 85 55 120 157 197 42 60 67 108 125 146 148 162 109 111 140 211 179 109 213 211 208 200 223 232 239 237 220 210 226 203 205 197 201 188 171 175 180 182 175 175
107 79 57 55 340 96 169 2 29 38 54 68 93 106 129 176 153 111 136 197 183 206 194 133 229 251 241 239 241 233 221 205 198 182 194 198 203 192 181 191 190 189 182 179
60 77 81 97 322 49 36 91 117 117 109 106 98 143 137 163 167 128 244 163 172 228 144 234 240 250 238 237 234 227 213 200 196 204 212 208 200 196 190 190 187 186 179 183
111 102 103 99 73 143 116 117 124 191 146 138 141 134 112 126 166 133 173 171 193 234 139 239 256 247 241 203 214 232 216 198 194 196 196 184 194 182 181 178 179 183 176 167
102 69 89 159 169 128 174 162 167 147 161 159 156 138 124 147 124 97 163 177 200 139 215 235 240 245 206 201 186 173 194 193 181 178 172 164 153 157 171 172 174 159 168 169
92 125 128 209 172 201 173 173 147 131 150 145 139 120 125 131 142 147 148 136 163 221 230 233 246 239 215 179 167 162 173 177 170 167 161 159 164 171 172 141 147 152 162 168
102 149 154 175 113 85 118 117 120 133 147 143 130 99 111 123 118 191 120 169 230 227 234 215 238 220 204 180 171 169 169 159 167 162 161 150 156 161 151 158 167 175 145 164
73 100 117 125 115 123 132 141 126 145 142 140 137 124 145 159 149 163 203 186 219 236 219 220 201 193 173 168 170 171 162 162 157 160 160 162 160 163 164 168 178 150 170 176
111 98 99 129 86 139 141 152 147 155 158 158 145 145 163 121 187 208 191 212 222 237 230 216 203 187 167 157 156 150 152 152 156 153 159 159 160 157 161 179 191 194 199 194